Orbital Elements at Epoch 2459000.5 (2020-May-31.0) TDB
Reference: JPL 27 (heliocentric ecliptic J2000)
Element | Value | Uncertainty (1-sigma) | Units |
e | .151277668445225 | 4.6315e-08 | |
a | 3.099666266954184 | 2.2139e-08 | au |
q | 2.63075598113104 | 1.5116e-07 | au |
i | 10.74399504132683 | 5.5766e-06 | deg |
node | 228.9469047255807 | 2.186e-05 | deg |
peri | 202.6012308031715 | 2.7832e-05 | deg |
M | .7996673146605209 | 1.6193e-05 | deg |
tp | 2458996.072305206761 (2020-May-26.57230521) | 8.9647e-05 | TDB |
period | 1993.291580565263 5.46 | 2.1355e-05 5.847e-08 | d yr |
n | .1806057896948073 | 1.9349e-09 | deg/d |
Q | 3.568576552777327 | 2.5488e-08 | au |
|
| | Orbit Determination Parameters
Additional Information
|